www.cux-wetter.de
Wetterdaten: Dienstag, 02.09.2008
Datum Zeit Temp. A. Feuchte A. Luftdruck Regen Wind Richtung Richtung Sonnenschein Solar Taupunkt Windchill Windben
02.09.2008 00:04 15,7 C 79 % 1012,5 hPa 0,0 l/m 0,1 km/h (0 Bft) SW 215 0 min 0 W/m 12,1 C 15,7 C 0,1 km/h (0 Bft)
02.09.2008 00:10 15,7 C 79 % 1012,5 hPa 0,0 l/m 0,3 km/h (0 Bft) SW 215 0 min 0 W/m 12,1 C 15,7 C 0,3 km/h (0 Bft)
02.09.2008 00:14 15,7 C 79 % 1012,5 hPa 0,0 l/m 2,6 km/h (1 Bft) S-SW 210 0 min 0 W/m 12,1 C 15,7 C 2,6 km/h (1 Bft)
02.09.2008 00:19 15,5 C 79 % 1012,5 hPa 0,0 l/m 2,2 km/h (1 Bft) S-SW 195 0 min 0 W/m 11,9 C 15,5 C 2,2 km/h (1 Bft)
02.09.2008 00:24 15,6 C 79 % 1012,5 hPa 0,0 l/m 0,1 km/h (0 Bft) S-SW 195 0 min 0 W/m 12,0 C 15,6 C 0,1 km/h (0 Bft)
02.09.2008 00:29 15,6 C 79 % 1012,5 hPa 0,0 l/m 3,6 km/h (1 Bft) S-SW 195 0 min 0 W/m 12,0 C 15,6 C 3,6 km/h (1 Bft)
02.09.2008 00:34 15,6 C 79 % 1012,5 hPa 0,0 l/m 3,9 km/h (1 Bft) S-SW 195 0 min 0 W/m 12,0 C 15,6 C 3,9 km/h (1 Bft)
02.09.2008 00:39 15,5 C 79 % 1012,5 hPa 0,0 l/m 3,9 km/h (1 Bft) S 180 0 min 0 W/m 11,9 C 15,5 C 3,9 km/h (1 Bft)
02.09.2008 00:44 15,4 C 80 % 1012,5 hPa 0,0 l/m 2,3 km/h (1 Bft) S 180 0 min 0 W/m 12,0 C 15,4 C 2,3 km/h (1 Bft)
02.09.2008 00:49 15,4 C 80 % 1012,5 hPa 0,0 l/m 0,0 km/h (0 Bft) S 180 0 min 0 W/m 12,0 C 15,4 C 0,0 km/h (0 Bft)
02.09.2008 00:55 15,3 C 80 % 1012,5 hPa 0,0 l/m 0,5 km/h (0 Bft) S 180 0 min 0 W/m 11,9 C 15,3 C 0,5 km/h (0 Bft)
02.09.2008 01:00 15,2 C 80 % 1012,5 hPa 0,0 l/m 0,1 km/h (0 Bft) S 180 0 min 0 W/m 11,8 C 15,2 C 0,1 km/h (0 Bft)
02.09.2008 01:04 15,2 C 80 % 1012,5 hPa 0,0 l/m 5,3 km/h (1 Bft) SW 215 0 min 0 W/m 11,8 C 15,2 C 5,3 km/h (1 Bft)
02.09.2008 01:09 15,1 C 80 % 1012,5 hPa 0,0 l/m 6,5 km/h (2 Bft) SW 215 0 min 0 W/m 11,7 C 15,1 C 6,5 km/h (2 Bft)
02.09.2008 01:14 15,1 C 81 % 1012,5 hPa 0,0 l/m 3,7 km/h (1 Bft) S-SW 210 0 min 0 W/m 11,9 C 15,1 C 3,7 km/h (1 Bft)
02.09.2008 01:19 15,2 C 81 % 1012,5 hPa 0,0 l/m 4,8 km/h (1 Bft) SW 215 0 min 0 W/m 12,0 C 15,2 C 4,8 km/h (1 Bft)
02.09.2008 01:25 15,0 C 80 % 1012,5 hPa 0,0 l/m 4,8 km/h (1 Bft) SW 230 0 min 0 W/m 11,6 C 15,0 C 4,8 km/h (1 Bft)
02.09.2008 01:29 15,1 C 81 % 1012,5 hPa 0,0 l/m 4,7 km/h (1 Bft) SW 215 0 min 0 W/m 11,9 C 15,1 C 4,7 km/h (1 Bft)
02.09.2008 01:34 15,2 C 81 % 1012,5 hPa 0,0 l/m 3,6 km/h (1 Bft) SW 220 0 min 0 W/m 12,0 C 15,2 C 3,6 km/h (1 Bft)
02.09.2008 01:39 15,2 C 80 % 1012,5 hPa 0,0 l/m 3,8 km/h (1 Bft) SW 230 0 min 0 W/m 11,8 C 15,2 C 3,8 km/h (1 Bft)
02.09.2008 01:44 15,1 C 81 % 1012,5 hPa 0,0 l/m 4,0 km/h (1 Bft) SW 230 0 min 0 W/m 11,9 C 15,1 C 4,0 km/h (1 Bft)
02.09.2008 01:49 15,2 C 81 % 1012,5 hPa 0,0 l/m 3,9 km/h (1 Bft) SW 225 0 min 0 W/m 12,0 C 15,2 C 3,9 km/h (1 Bft)
02.09.2008 01:54 15,3 C 80 % 1012,5 hPa 0,0 l/m 3,9 km/h (1 Bft) W-SW 240 0 min 0 W/m 11,9 C 15,3 C 3,9 km/h (1 Bft)
02.09.2008 01:59 15,3 C 80 % 1012,5 hPa 0,0 l/m 3,3 km/h (1 Bft) SW 215 0 min 0 W/m 11,9 C 15,3 C 3,3 km/h (1 Bft)
02.09.2008 02:04 15,3 C 80 % 1012,5 hPa 0,0 l/m 4,2 km/h (1 Bft) S-SW 195 0 min 0 W/m 11,9 C 15,3 C 4,2 km/h (1 Bft)
02.09.2008 02:09 15,3 C 80 % 1011,5 hPa 0,0 l/m 3,7 km/h (1 Bft) S-SW 205 0 min 0 W/m 11,9 C 15,3 C 3,7 km/h (1 Bft)
02.09.2008 02:14 15,1 C 80 % 1011,5 hPa 0,0 l/m 4,9 km/h (1 Bft) S-SW 200 0 min 0 W/m 11,7 C 15,1 C 4,9 km/h (1 Bft)
02.09.2008 02:19 15,0 C 80 % 1011,5 hPa 0,0 l/m 5,2 km/h (1 Bft) SW 215 0 min 0 W/m 11,6 C 15,0 C 5,2 km/h (1 Bft)
02.09.2008 02:24 15,0 C 80 % 1011,5 hPa 0,0 l/m 5,4 km/h (2 Bft) S-SW 210 0 min 0 W/m 11,6 C 15,0 C 5,4 km/h (2 Bft)
02.09.2008 02:29 15,0 C 81 % 1011,5 hPa 0,0 l/m 6,3 km/h (2 Bft) SW 215 0 min 0 W/m 11,8 C 15,0 C 6,3 km/h (2 Bft)
02.09.2008 02:34 15,0 C 80 % 1011,5 hPa 0,0 l/m 6,7 km/h (2 Bft) SW 215 0 min 0 W/m 11,6 C 14,8 C 6,7 km/h (2 Bft)
02.09.2008 02:40 15,0 C 81 % 1011,5 hPa 0,0 l/m 8,0 km/h (2 Bft) SW 220 0 min 0 W/m 11,8 C 14,1 C 8,0 km/h (2 Bft)
02.09.2008 02:45 14,8 C 81 % 1011,5 hPa 0,0 l/m 7,9 km/h (2 Bft) SW 230 0 min 0 W/m 11,6 C 13,9 C 7,9 km/h (2 Bft)
02.09.2008 02:49 14,6 C 81 % 1011,5 hPa 0,0 l/m 6,8 km/h (2 Bft) SW 220 0 min 0 W/m 11,4 C 14,4 C 6,8 km/h (2 Bft)
02.09.2008 02:54 14,7 C 81 % 1011,5 hPa 0,0 l/m 7,6 km/h (2 Bft) SW 225 0 min 0 W/m 11,5 C 14,0 C 7,6 km/h (2 Bft)
02.09.2008 02:59 14,6 C 81 % 1011,5 hPa 0,0 l/m 7,2 km/h (2 Bft) SW 215 0 min 0 W/m 11,4 C 14,1 C 7,2 km/h (2 Bft)
02.09.2008 03:04 14,6 C 81 % 1011,5 hPa 0,0 l/m 6,2 km/h (2 Bft) S-SW 210 0 min 0 W/m 11,4 C 14,6 C 6,2 km/h (2 Bft)
02.09.2008 03:10 14,7 C 81 % 1011,5 hPa 0,0 l/m 7,6 km/h (2 Bft) SW 225 0 min 0 W/m 11,5 C 14,0 C 7,6 km/h (2 Bft)
02.09.2008 03:15 14,7 C 81 % 1011,5 hPa 0,0 l/m 7,2 km/h (2 Bft) SW 215 0 min 0 W/m 11,5 C 14,2 C 7,2 km/h (2 Bft)
02.09.2008 03:19 14,8 C 81 % 1011,5 hPa 0,0 l/m 6,5 km/h (2 Bft) SW 225 0 min 0 W/m 11,6 C 14,8 C 6,5 km/h (2 Bft)
02.09.2008 03:24 14,9 C 81 % 1011,5 hPa 0,0 l/m 5,5 km/h (2 Bft) SW 215 0 min 0 W/m 11,7 C 14,9 C 5,5 km/h (2 Bft)
02.09.2008 03:29 15,0 C 81 % 1011,5 hPa 0,0 l/m 5,6 km/h (2 Bft) S-SW 210 0 min 0 W/m 11,8 C 15,0 C 5,6 km/h (2 Bft)
02.09.2008 03:34 14,9 C 81 % 1011,5 hPa 0,0 l/m 6,1 km/h (2 Bft) SW 220 0 min 0 W/m 11,7 C 14,9 C 6,1 km/h (2 Bft)
02.09.2008 03:39 14,8 C 81 % 1011,5 hPa 0,0 l/m 6,5 km/h (2 Bft) S-SW 210 0 min 0 W/m 11,6 C 14,8 C 6,5 km/h (2 Bft)
02.09.2008 03:44 14,8 C 81 % 1011,5 hPa 0,0 l/m 5,7 km/h (2 Bft) S-SW 210 0 min 0 W/m 11,6 C 14,8 C 5,7 km/h (2 Bft)
02.09.2008 03:49 14,8 C 81 % 1011,5 hPa 0,0 l/m 7,1 km/h (2 Bft) S-SW 205 0 min 0 W/m 11,6 C 14,4 C 7,1 km/h (2 Bft)
02.09.2008 03:55 14,7 C 81 % 1011,5 hPa 0,0 l/m 6,7 km/h (2 Bft) SW 225 0 min 0 W/m 11,5 C 14,5 C 6,7 km/h (2 Bft)
02.09.2008 04:00 14,7 C 81 % 1011,5 hPa 0,0 l/m 9,8 km/h (2 Bft) S-SW 205 0 min 0 W/m 11,5 C 12,9 C 9,8 km/h (2 Bft)
02.09.2008 04:04 14,7 C 81 % 1011,5 hPa 0,0 l/m 6,5 km/h (2 Bft) SW 220 0 min 0 W/m 11,5 C 14,7 C 6,5 km/h (2 Bft)
02.09.2008 04:09 14,6 C 81 % 1011,5 hPa 0,0 l/m 7,8 km/h (2 Bft) SW 230 0 min 0 W/m 11,4 C 13,8 C 7,8 km/h (2 Bft)
02.09.2008 04:14 14,6 C 81 % 1011,5 hPa 0,0 l/m 9,0 km/h (2 Bft) SW 220 0 min 0 W/m 11,4 C 13,2 C 9,0 km/h (2 Bft)
02.09.2008 04:20 14,6 C 81 % 1011,5 hPa 0,0 l/m 8,5 km/h (2 Bft) SW 225 0 min 0 W/m 11,4 C 13,4 C 8,5 km/h (2 Bft)
02.09.2008 04:25 14,5 C 81 % 1011,5 hPa 0,0 l/m 6,3 km/h (2 Bft) SW 230 0 min 0 W/m 11,3 C 14,5 C 6,3 km/h (2 Bft)
02.09.2008 04:29 14,4 C 82 % 1011,5 hPa 0,0 l/m 9,7 km/h (2 Bft) W-SW 255 0 min 0 W/m 11,4 C 12,6 C 9,7 km/h (2 Bft)
02.09.2008 04:34 14,4 C 83 % 1010,5 hPa 0,0 l/m 6,8 km/h (2 Bft) SW 215 0 min 0 W/m 11,5 C 14,2 C 6,8 km/h (2 Bft)
02.09.2008 04:39 14,4 C 82 % 1010,5 hPa 0,0 l/m 7,8 km/h (2 Bft) SW 225 0 min 0 W/m 11,4 C 13,6 C 7,8 km/h (2 Bft)
02.09.2008 04:44 14,5 C 82 % 1010,5 hPa 0,0 l/m 6,7 km/h (2 Bft) SW 215 0 min 0 W/m 11,5 C 14,3 C 6,7 km/h (2 Bft)
02.09.2008 04:49 14,4 C 82 % 1010,5 hPa 0,0 l/m 6,6 km/h (2 Bft) SW 230 0 min 0 W/m 11,4 C 14,3 C 6,6 km/h (2 Bft)
02.09.2008 04:54 14,4 C 82 % 1010,5 hPa 0,0 l/m 9,3 km/h (2 Bft) SW 230 0 min 0 W/m 11,4 C 12,8 C 9,3 km/h (2 Bft)
02.09.2008 04:59 14,4 C 82 % 1010,5 hPa 0,0 l/m 8,3 km/h (2 Bft) SW 220 0 min 0 W/m 11,4 C 13,3 C 8,3 km/h (2 Bft)
02.09.2008 05:05 14,4 C 82 % 1010,5 hPa 0,0 l/m 10,0 km/h (2 Bft) SW 225 0 min 0 W/m 11,4 C 12,5 C 10,0 km/h (2 Bft)
02.09.2008 05:09 14,4 C 82 % 1010,5 hPa 0,0 l/m 8,1 km/h (2 Bft) SW 225 0 min 0 W/m 11,4 C 13,4 C 8,1 km/h (2 Bft)
02.09.2008 05:14 14,3 C 83 % 1010,5 hPa 0,0 l/m 8,5 km/h (2 Bft) SW 230 0 min 0 W/m 11,5 C 13,1 C 8,5 km/h (2 Bft)
02.09.2008 05:19 14,2 C 83 % 1010,5 hPa 0,0 l/m 10,0 km/h (2 Bft) S-SW 210 0 min 0 W/m 11,4 C 12,2 C 10,0 km/h (2 Bft)
02.09.2008 05:24 14,2 C 83 % 1010,5 hPa 0,0 l/m 9,4 km/h (2 Bft) SW 225 0 min 0 W/m 11,4 C 12,5 C 9,4 km/h (2 Bft)
02.09.2008 05:30 14,2 C 83 % 1010,5 hPa 0,0 l/m 10,8 km/h (2 Bft) SW 230 0 min 0 W/m 11,4 C 11,9 C 10,8 km/h (2 Bft)
02.09.2008 05:34 14,1 C 83 % 1010,5 hPa 0,0 l/m 10,0 km/h (2 Bft) SW 215 0 min 0 W/m 11,3 C 12,1 C 10,0 km/h (2 Bft)
02.09.2008 05:39 14,2 C 83 % 1010,5 hPa 0,0 l/m 9,1 km/h (2 Bft) SW 225 0 min 0 W/m 11,4 C 12,7 C 9,1 km/h (2 Bft)
02.09.2008 05:44 14,1 C 83 % 1010,5 hPa 0,0 l/m 9,2 km/h (2 Bft) SW 220 0 min 0 W/m 11,3 C 12,5 C 9,2 km/h (2 Bft)
02.09.2008 05:49 14,0 C 82 % 1010,5 hPa 0,0 l/m 11,4 km/h (2 Bft) SW 215 0 min 0 W/m 11,0 C 11,4 C 11,4 km/h (2 Bft)
02.09.2008 05:54 13,9 C 82 % 1010,5 hPa 0,0 l/m 8,7 km/h (2 Bft) S-SW 210 0 min 0 W/m 10,9 C 12,6 C 8,7 km/h (2 Bft)
02.09.2008 05:59 13,9 C 83 % 1010,5 hPa 0,0 l/m 10,0 km/h (2 Bft) SW 215 0 min 0 W/m 11,1 C 11,9 C 10,0 km/h (2 Bft)
02.09.2008 06:04 14,0 C 83 % 1010,5 hPa 0,0 l/m 9,4 km/h (2 Bft) SW 225 0 min 0 W/m 11,2 C 12,3 C 9,4 km/h (2 Bft)
02.09.2008 06:09 14,1 C 83 % 1009,5 hPa 0,0 l/m 8,3 km/h (2 Bft) SW 215 0 min 0 W/m 11,3 C 13,0 C 8,3 km/h (2 Bft)
02.09.2008 06:14 14,1 C 83 % 1009,5 hPa 0,0 l/m 8,3 km/h (2 Bft) S-SW 205 0 min 0 W/m 11,3 C 13,0 C 8,3 km/h (2 Bft)
02.09.2008 06:19 14,0 C 82 % 1009,5 hPa 0,0 l/m 8,3 km/h (2 Bft) S-SW 195 0 min 0 W/m 11,0 C 12,9 C 8,3 km/h (2 Bft)
02.09.2008 06:24 13,9 C 82 % 1009,5 hPa 0,0 l/m 8,4 km/h (2 Bft) S-SW 195 0 min 0 W/m 10,9 C 12,7 C 8,4 km/h (2 Bft)
02.09.2008 06:29 13,9 C 83 % 1009,5 hPa 0,0 l/m 9,3 km/h (2 Bft) S 190 0 min 0 W/m 11,1 C 12,2 C 9,3 km/h (2 Bft)
02.09.2008 06:35 14,0 C 82 % 1009,5 hPa 0,0 l/m 9,2 km/h (2 Bft) S-SW 200 0 min 0 W/m 11,0 C 12,4 C 9,2 km/h (2 Bft)
02.09.2008 06:40 13,9 C 82 % 1009,5 hPa 0,0 l/m 7,6 km/h (2 Bft) S-SW 195 0 min 0 W/m 10,9 C 13,2 C 7,6 km/h (2 Bft)
02.09.2008 06:44 13,9 C 82 % 1009,5 hPa 0,0 l/m 8,1 km/h (2 Bft) S 190 0 min 0 W/m 10,9 C 12,9 C 8,1 km/h (2 Bft)
02.09.2008 06:49 13,9 C 82 % 1009,5 hPa 0,0 l/m 8,7 km/h (2 Bft) S 190 0 min 0 W/m 10,9 C 12,6 C 8,7 km/h (2 Bft)
02.09.2008 06:54 13,8 C 82 % 1009,5 hPa 0,0 l/m 10,0 km/h (2 Bft) S 190 0 min 0 W/m 10,8 C 11,8 C 10,0 km/h (2 Bft)
02.09.2008 06:59 13,7 C 82 % 1009,5 hPa 0,0 l/m 8,7 km/h (2 Bft) S 190 0 min 0 W/m 10,7 C 12,3 C 8,7 km/h (2 Bft)
02.09.2008 07:04 13,8 C 82 % 1009,5 hPa 0,0 l/m 8,5 km/h (2 Bft) S 185 0 min 0 W/m 10,8 C 12,6 C 8,5 km/h (2 Bft)
02.09.2008 07:09 13,8 C 82 % 1009,5 hPa 0,0 l/m 8,7 km/h (2 Bft) S 190 0 min 0 W/m 10,8 C 12,5 C 8,7 km/h (2 Bft)
02.09.2008 07:14 13,8 C 82 % 1009,5 hPa 0,0 l/m 11,2 km/h (2 Bft) S-SW 195 0 min 0 W/m 10,8 C 11,2 C 11,2 km/h (2 Bft)
02.09.2008 07:19 13,8 C 82 % 1009,5 hPa 0,0 l/m 10,0 km/h (2 Bft) S 185 0 min 0 W/m 10,8 C 11,8 C 10,0 km/h (2 Bft)
02.09.2008 07:24 13,8 C 82 % 1009,5 hPa 0,0 l/m 11,3 km/h (2 Bft) S 185 0 min 0 W/m 10,8 C 11,2 C 11,3 km/h (2 Bft)
02.09.2008 07:29 13,9 C 83 % 1009,5 hPa 0,0 l/m 7,7 km/h (2 Bft) S-SW 195 0 min 0 W/m 11,1 C 13,1 C 7,7 km/h (2 Bft)
02.09.2008 07:34 13,8 C 83 % 1009,5 hPa 0,0 l/m 7,1 km/h (2 Bft) S 190 0 min 0 W/m 11,0 C 13,4 C 7,1 km/h (2 Bft)
02.09.2008 07:39 14,0 C 83 % 1009,5 hPa 0,0 l/m 7,5 km/h (2 Bft) S 190 0 min 0 W/m 11,2 C 13,3 C 7,5 km/h (2 Bft)
02.09.2008 07:45 14,2 C 83 % 1009,5 hPa 0,0 l/m 11,5 km/h (2 Bft) S-SW 200 0 min 0 W/m 11,4 C 11,6 C 11,5 km/h (2 Bft)
02.09.2008 07:49 14,2 C 83 % 1009,5 hPa 0,0 l/m 10,1 km/h (2 Bft) S 190 0 min 0 W/m 11,4 C 12,2 C 10,1 km/h (2 Bft)
02.09.2008 07:54 14,2 C 83 % 1009,5 hPa 0,0 l/m 4,9 km/h (1 Bft) SW 215 0 min 0 W/m 11,4 C 14,2 C 4,9 km/h (1 Bft)
02.09.2008 07:59 14,4 C 83 % 1009,5 hPa 0,0 l/m 14,1 km/h (3 Bft) S-SW 210 0 min 0 W/m 11,5 C 10,8 C 14,1 km/h (3 Bft)
02.09.2008 08:04 14,4 C 83 % 1009,5 hPa 0,0 l/m 12,3 km/h (2 Bft) SW 215 0 min 0 W/m 11,5 C 11,5 C 12,3 km/h (2 Bft)
02.09.2008 08:10 14,5 C 83 % 1009,5 hPa 0,0 l/m 15,1 km/h (3 Bft) SW 215 0 min 0 W/m 11,6 C 10,6 C 15,1 km/h (3 Bft)
02.09.2008 08:14 14,5 C 83 % 1009,5 hPa 0,0 l/m 12,3 km/h (2 Bft) S-SW 205 0 min 0 W/m 11,6 C 11,6 C 12,3 km/h (2 Bft)
02.09.2008 08:19 14,6 C 83 % 1009,5 hPa 0,0 l/m 13,7 km/h (3 Bft) S-SW 210 0 min 0 W/m 11,7 C 11,2 C 13,7 km/h (3 Bft)
02.09.2008 08:24 14,8 C 84 % 1009,5 hPa 0,0 l/m 14,1 km/h (3 Bft) SW 220 0 min 0 W/m 12,1 C 11,3 C 14,1 km/h (3 Bft)
02.09.2008 08:29 15,0 C 83 % 1009,5 hPa 0,0 l/m 16,9 km/h (3 Bft) SW 215 0 min 0 W/m 12,1 C 10,6 C 16,9 km/h (3 Bft)
02.09.2008 08:34 15,0 C 83 % 1009,5 hPa 0,0 l/m 17,0 km/h (3 Bft) SW 220 0 min 0 W/m 12,1 C 10,6 C 17,0 km/h (3 Bft)
02.09.2008 08:39 15,3 C 82 % 1008,5 hPa 0,0 l/m 16,8 km/h (3 Bft) SW 215 0 min 0 W/m 12,2 C 11,0 C 16,8 km/h (3 Bft)
02.09.2008 08:44 15,4 C 82 % 1008,5 hPa 0,0 l/m 16,8 km/h (3 Bft) SW 220 0 min 0 W/m 12,3 C 11,1 C 16,8 km/h (3 Bft)
02.09.2008 08:50 15,5 C 82 % 1008,5 hPa 0,0 l/m 15,1 km/h (3 Bft) SW 215 0 min 0 W/m 12,4 C 11,8 C 15,1 km/h (3 Bft)
02.09.2008 08:54 15,7 C 82 % 1008,5 hPa 0,0 l/m 17,3 km/h (3 Bft) SW 235 0 min 0 W/m 12,6 C 11,4 C 17,3 km/h (3 Bft)
02.09.2008 08:59 15,8 C 82 % 1008,5 hPa 0,0 l/m 14,1 km/h (3 Bft) W-SW 240 0 min 0 W/m 12,7 C 12,5 C 14,1 km/h (3 Bft)
02.09.2008 09:04 16,0 C 82 % 1008,5 hPa 0,0 l/m 13,6 km/h (3 Bft) SW 225 0 min 0 W/m 12,9 C 12,9 C 13,6 km/h (3 Bft)
02.09.2008 09:10 16,4 C 81 % 1008,5 hPa 0,0 l/m 15,0 km/h (3 Bft) SW 215 0 min 0 W/m 13,1 C 12,9 C 15,0 km/h (3 Bft)
02.09.2008 09:15 16,4 C 80 % 1008,5 hPa 0,0 l/m 15,3 km/h (3 Bft) SW 215 0 min 0 W/m 12,9 C 12,8 C 15,3 km/h (3 Bft)
02.09.2008 09:19 16,6 C 80 % 1008,5 hPa 0,0 l/m 12,1 km/h (2 Bft) S-SW 210 0 min 0 W/m 13,1 C 14,1 C 12,1 km/h (2 Bft)
02.09.2008 09:24 16,9 C 80 % 1008,5 hPa 0,0 l/m 13,1 km/h (3 Bft) S-SW 210 0 min 0 W/m 13,4 C 14,1 C 13,1 km/h (3 Bft)
02.09.2008 09:29 16,9 C 80 % 1008,5 hPa 0,0 l/m 16,2 km/h (3 Bft) S-SW 200 0 min 0 W/m 13,4 C 13,2 C 16,2 km/h (3 Bft)
02.09.2008 09:34 17,0 C 79 % 1008,5 hPa 0,3 l/m 14,0 km/h (3 Bft) S-SW 200 0 min 0 W/m 13,3 C 13,9 C 14,0 km/h (3 Bft)
02.09.2008 09:39 17,2 C 79 % 1008,5 hPa 0,0 l/m 19,5 km/h (3 Bft) SW 220 0 min 0 W/m 13,5 C 12,7 C 19,5 km/h (3 Bft)
02.09.2008 09:44 17,4 C 79 % 1008,5 hPa 0,0 l/m 13,0 km/h (3 Bft) S-SW 205 0 min 0 W/m 13,7 C 14,7 C 13,0 km/h (3 Bft)
02.09.2008 09:50 17,5 C 78 % 1008,5 hPa 0,0 l/m 16,1 km/h (3 Bft) SW 215 0 min 0 W/m 13,6 C 13,9 C 16,1 km/h (3 Bft)
02.09.2008 09:55 17,7 C 78 % 1008,5 hPa 0,0 l/m 10,7 km/h (2 Bft) S-SW 205 0 min 0 W/m 13,8 C 15,8 C 10,7 km/h (2 Bft)
02.09.2008 09:59 17,8 C 77 % 1007,5 hPa 0,0 l/m 12,3 km/h (2 Bft) SW 215 0 min 0 W/m 13,7 C 15,4 C 12,3 km/h (2 Bft)
02.09.2008 10:04 17,8 C 77 % 1007,5 hPa 0,0 l/m 16,4 km/h (3 Bft) S-SW 195 0 min 0 W/m 13,7 C 14,2 C 16,4 km/h (3 Bft)
02.09.2008 10:09 17,8 C 77 % 1007,5 hPa 0,0 l/m 18,7 km/h (3 Bft) S-SW 200 0 min 0 W/m 13,7 C 13,7 C 18,7 km/h (3 Bft)
02.09.2008 10:15 18,0 C 77 % 1007,5 hPa 0,0 l/m 12,6 km/h (3 Bft) S-SW 200 0 min 0 W/m 13,9 C 15,5 C 12,6 km/h (3 Bft)
02.09.2008 10:19 18,0 C 77 % 1007,5 hPa 0,0 l/m 15,0 km/h (3 Bft) S-SW 205 0 min 0 W/m 13,9 C 14,8 C 15,0 km/h (3 Bft)
02.09.2008 10:24 17,8 C 76 % 1007,5 hPa 0,0 l/m 14,6 km/h (3 Bft) S-SW 205 0 min 0 W/m 13,5 C 14,7 C 14,6 km/h (3 Bft)
02.09.2008 10:29 17,7 C 77 % 1007,5 hPa 0,0 l/m 13,1 km/h (3 Bft) S 185 0 min 0 W/m 13,6 C 15,0 C 13,1 km/h (3 Bft)
02.09.2008 10:34 17,5 C 77 % 1007,5 hPa 0,0 l/m 14,8 km/h (3 Bft) S-SW 200 0 min 0 W/m 13,4 C 14,3 C 14,8 km/h (3 Bft)
02.09.2008 10:39 17,4 C 77 % 1007,5 hPa 0,0 l/m 21,0 km/h (4 Bft) SW 215 0 min 0 W/m 13,3 C 12,6 C 21,0 km/h (4 Bft)
02.09.2008 10:44 17,2 C 77 % 1007,5 hPa 0,0 l/m 17,3 km/h (3 Bft) S-SW 210 0 min 0 W/m 13,1 C 13,2 C 17,3 km/h (3 Bft)
02.09.2008 10:49 17,2 C 78 % 1007,5 hPa 0,0 l/m 20,5 km/h (4 Bft) S-SW 210 0 min 0 W/m 13,3 C 12,5 C 20,5 km/h (4 Bft)
02.09.2008 10:55 17,1 C 78 % 1007,5 hPa 0,0 l/m 20,7 km/h (4 Bft) S-SW 205 0 min 0 W/m 13,2 C 12,3 C 20,7 km/h (4 Bft)
02.09.2008 10:59 17,2 C 79 % 1007,5 hPa 0,0 l/m 16,4 km/h (3 Bft) S-SW 205 0 min 0 W/m 13,5 C 13,5 C 16,4 km/h (3 Bft)
02.09.2008 11:04 17,3 C 78 % 1007,5 hPa 0,0 l/m 17,4 km/h (3 Bft) S-SW 200 0 min 0 W/m 13,4 C 13,3 C 17,4 km/h (3 Bft)
02.09.2008 11:09 17,3 C 78 % 1007,5 hPa 0,0 l/m 17,0 km/h (3 Bft) S-SW 200 0 min 0 W/m 13,4 C 13,4 C 17,0 km/h (3 Bft)
02.09.2008 11:14 17,3 C 78 % 1007,5 hPa 0,0 l/m 13,7 km/h (3 Bft) S-SW 200 0 min 0 W/m 13,4 C 14,4 C 13,7 km/h (3 Bft)
02.09.2008 11:20 17,5 C 78 % 1007,5 hPa 0,0 l/m 18,0 km/h (3 Bft) SW 215 0 min 0 W/m 13,6 C 13,4 C 18,0 km/h (3 Bft)
02.09.2008 11:24 17,6 C 78 % 1007,5 hPa 0,0 l/m 23,3 km/h (4 Bft) SW 215 0 min 0 W/m 13,7 C 12,4 C 23,3 km/h (4 Bft)
02.09.2008 11:29 17,7 C 78 % 1007,5 hPa 0,0 l/m 12,7 km/h (3 Bft) S-SW 205 0 min 0 W/m 13,8 C 15,2 C 12,7 km/h (3 Bft)
02.09.2008 11:34 18,0 C 78 % 1007,5 hPa 0,0 l/m 15,7 km/h (3 Bft) SW 215 0 min 0 W/m 14,1 C 14,6 C 15,7 km/h (3 Bft)
02.09.2008 11:39 18,3 C 77 % 1007,5 hPa 0,0 l/m 19,1 km/h (3 Bft) S-SW 200 0 min 0 W/m 14,2 C 14,2 C 19,1 km/h (3 Bft)
02.09.2008 11:44 18,5 C 77 % 1007,5 hPa 0,0 l/m 18,1 km/h (3 Bft) S-SW 205 0 min 0 W/m 14,4 C 14,7 C 18,1 km/h (3 Bft)
02.09.2008 11:49 18,8 C 76 % 1007,5 hPa 0,0 l/m 19,6 km/h (3 Bft) SW 230 0 min 0 W/m 14,5 C 14,7 C 19,6 km/h (3 Bft)
02.09.2008 11:55 18,9 C 75 % 1007,5 hPa 0,0 l/m 13,0 km/h (3 Bft) SW 230 0 min 0 W/m 14,4 C 16,5 C 13,0 km/h (3 Bft)
02.09.2008 11:59 19,0 C 75 % 1007,5 hPa 0,0 l/m 16,8 km/h (3 Bft) SW 230 0 min 0 W/m 14,5 C 15,6 C 16,8 km/h (3 Bft)
02.09.2008 12:04 19,2 C 75 % 1006,5 hPa 0,0 l/m 16,6 km/h (3 Bft) SW 220 0 min 0 W/m 14,7 C 15,9 C 16,6 km/h (3 Bft)
02.09.2008 12:10 19,2 C 74 % 1006,5 hPa 0,0 l/m 20,6 km/h (4 Bft) SW 220 0 min 0 W/m 14,4 C 15,1 C 20,6 km/h (4 Bft)
02.09.2008 12:14 19,2 C 74 % 1006,5 hPa 0,0 l/m 16,7 km/h (3 Bft) SW 225 0 min 0 W/m 14,4 C 15,9 C 16,7 km/h (3 Bft)
02.09.2008 12:20 19,3 C 73 % 1006,5 hPa 0,0 l/m 18,3 km/h (3 Bft) SW 220 0 min 0 W/m 14,3 C 15,6 C 18,3 km/h (3 Bft)
02.09.2008 12:24 19,3 C 74 % 1006,5 hPa 0,0 l/m 15,0 km/h (3 Bft) S-SW 205 0 min 0 W/m 14,5 C 16,4 C 15,0 km/h (3 Bft)
02.09.2008 12:29 19,3 C 74 % 1006,5 hPa 0,0 l/m 13,3 km/h (3 Bft) SW 225 0 min 0 W/m 14,5 C 16,8 C 13,3 km/h (3 Bft)
02.09.2008 12:34 19,1 C 74 % 1006,5 hPa 0,0 l/m 21,8 km/h (4 Bft) SW 225 0 min 0 W/m 14,4 C 14,7 C 21,8 km/h (4 Bft)
02.09.2008 12:39 18,7 C 75 % 1006,5 hPa 0,0 l/m 19,0 km/h (3 Bft) SW 220 0 min 0 W/m 14,2 C 14,7 C 19,0 km/h (3 Bft)
02.09.2008 12:44 18,6 C 75 % 1006,5 hPa 0,0 l/m 19,4 km/h (3 Bft) SW 225 0 min 0 W/m 14,1 C 14,5 C 19,4 km/h (3 Bft)
02.09.2008 12:49 18,1 C 76 % 1006,5 hPa 0,0 l/m 14,7 km/h (3 Bft) SW 215 0 min 0 W/m 13,8 C 15,0 C 14,7 km/h (3 Bft)
02.09.2008 12:54 17,9 C 77 % 1006,5 hPa 0,0 l/m 23,8 km/h (4 Bft) SW 215 0 min 0 W/m 13,8 C 12,7 C 23,8 km/h (4 Bft)
02.09.2008 12:59 17,6 C 78 % 1006,5 hPa 0,0 l/m 21,5 km/h (4 Bft) S-SW 210 0 min 0 W/m 13,7 C 12,8 C 21,5 km/h (4 Bft)
02.09.2008 13:05 17,6 C 79 % 1006,5 hPa 0,0 l/m 22,3 km/h (4 Bft) SW 215 0 min 0 W/m 13,9 C 12,6 C 22,3 km/h (4 Bft)
02.09.2008 13:09 17,6 C 79 % 1006,5 hPa 0,0 l/m 24,1 km/h (4 Bft) SW 220 0 min 0 W/m 13,9 C 12,3 C 24,1 km/h (4 Bft)
02.09.2008 13:14 17,6 C 79 % 1006,5 hPa 0,0 l/m 16,8 km/h (3 Bft) S-SW 205 0 min 0 W/m 13,9 C 13,9 C 16,8 km/h (3 Bft)
02.09.2008 13:19 17,6 C 79 % 1006,5 hPa 0,0 l/m 19,4 km/h (3 Bft) SW 220 0 min 0 W/m 13,9 C 13,2 C 19,4 km/h (3 Bft)
02.09.2008 13:25 17,6 C 79 % 1005,5 hPa 0,0 l/m 21,3 km/h (4 Bft) S-SW 205 0 min 0 W/m 13,9 C 12,8 C 21,3 km/h (4 Bft)
02.09.2008 13:29 17,8 C 79 % 1005,5 hPa 0,0 l/m 21,5 km/h (4 Bft) SW 215 0 min 0 W/m 14,1 C 13,1 C 21,5 km/h (4 Bft)
02.09.2008 13:34 18,0 C 78 % 1005,5 hPa 0,0 l/m 17,2 km/h (3 Bft) S-SW 200 0 min 0 W/m 14,1 C 14,3 C 17,2 km/h (3 Bft)
02.09.2008 13:39 18,0 C 78 % 1005,5 hPa 0,0 l/m 22,0 km/h (4 Bft) S-SW 195 0 min 0 W/m 14,1 C 13,2 C 22,0 km/h (4 Bft)
02.09.2008 13:44 18,0 C 78 % 1005,5 hPa 0,0 l/m 14,1 km/h (3 Bft) S-SW 210 0 min 0 W/m 14,1 C 15,1 C 14,1 km/h (3 Bft)
02.09.2008 13:49 18,3 C 78 % 1005,5 hPa 0,0 l/m 17,1 km/h (3 Bft) S-SW 205 0 min 0 W/m 14,4 C 14,7 C 17,1 km/h (3 Bft)
02.09.2008 13:54 18,4 C 78 % 1005,5 hPa 0,0 l/m 20,0 km/h (4 Bft) SW 215 0 min 0 W/m 14,5 C 14,1 C 20,0 km/h (4 Bft)
02.09.2008 14:00 18,8 C 77 % 1004,5 hPa 0,0 l/m 18,3 km/h (3 Bft) S-SW 210 0 min 0 W/m 14,7 C 15,0 C 18,3 km/h (3 Bft)
02.09.2008 14:04 19,0 C 76 % 1004,5 hPa 0,0 l/m 15,8 km/h (3 Bft) SW 215 0 min 0 W/m 14,7 C 15,8 C 15,8 km/h (3 Bft)
02.09.2008 14:09 18,9 C 75 % 1004,5 hPa 0,0 l/m 16,4 km/h (3 Bft) S-SW 205 0 min 0 W/m 14,4 C 15,6 C 16,4 km/h (3 Bft)
02.09.2008 14:14 18,8 C 76 % 1004,5 hPa 0,0 l/m 19,1 km/h (3 Bft) S-SW 200 0 min 0 W/m 14,5 C 14,8 C 19,1 km/h (3 Bft)
02.09.2008 14:20 18,8 C 76 % 1004,5 hPa 0,0 l/m 20,4 km/h (4 Bft) SW 220 0 min 0 W/m 14,5 C 14,6 C 20,4 km/h (4 Bft)
02.09.2008 14:25 18,7 C 76 % 1004,5 hPa 0,0 l/m 19,1 km/h (3 Bft) S 185 0 min 0 W/m 14,4 C 14,7 C 19,1 km/h (3 Bft)
02.09.2008 14:29 18,6 C 76 % 1004,5 hPa 0,0 l/m 16,8 km/h (3 Bft) S-SW 205 0 min 0 W/m 14,3 C 15,1 C 16,8 km/h (3 Bft)
02.09.2008 14:34 18,6 C 76 % 1004,5 hPa 0,0 l/m 16,8 km/h (3 Bft) S-SW 210 0 min 0 W/m 14,3 C 15,1 C 16,8 km/h (3 Bft)
02.09.2008 14:39 18,7 C 76 % 1004,5 hPa 0,0 l/m 18,0 km/h (3 Bft) S-SW 205 0 min 0 W/m 14,4 C 15,0 C 18,0 km/h (3 Bft)
02.09.2008 14:44 18,8 C 75 % 1004,5 hPa 0,0 l/m 19,8 km/h (3 Bft) S-SW 205 0 min 0 W/m 14,3 C 14,7 C 19,8 km/h (3 Bft)
02.09.2008 14:49 18,8 C 76 % 1004,5 hPa 0,0 l/m 14,6 km/h (3 Bft) SW 215 0 min 0 W/m 14,5 C 15,9 C 14,6 km/h (3 Bft)
02.09.2008 14:54 18,7 C 76 % 1004,5 hPa 0,0 l/m 20,5 km/h (4 Bft) S-SW 210 0 min 0 W/m 14,4 C 14,4 C 20,5 km/h (4 Bft)
02.09.2008 15:00 18,7 C 76 % 1004,5 hPa 0,0 l/m 21,1 km/h (4 Bft) S-SW 200 0 min 0 W/m 14,4 C 14,3 C 21,1 km/h (4 Bft)
02.09.2008 15:04 18,6 C 77 % 1004,5 hPa 0,0 l/m 21,1 km/h (4 Bft) S-SW 200 0 min 0 W/m 14,5 C 14,2 C 21,1 km/h (4 Bft)
02.09.2008 15:09 18,5 C 77 % 1004,5 hPa 0,0 l/m 17,8 km/h (3 Bft) S-SW 210 0 min 0 W/m 14,4 C 14,7 C 17,8 km/h (3 Bft)
02.09.2008 15:14 18,5 C 78 % 1004,5 hPa 0,0 l/m 16,3 km/h (3 Bft) S-SW 200 0 min 0 W/m 14,6 C 15,1 C 16,3 km/h (3 Bft)
02.09.2008 15:20 18,6 C 77 % 1003,5 hPa 0,0 l/m 23,1 km/h (4 Bft) S-SW 205 0 min 0 W/m 14,5 C 13,8 C 23,1 km/h (4 Bft)
02.09.2008 15:24 18,5 C 77 % 1003,5 hPa 0,0 l/m 18,1 km/h (3 Bft) SW 215 0 min 0 W/m 14,4 C 14,7 C 18,1 km/h (3 Bft)
02.09.2008 15:29 18,5 C 77 % 1003,5 hPa 0,0 l/m 18,8 km/h (3 Bft) S-SW 210 0 min 0 W/m 14,4 C 14,5 C 18,8 km/h (3 Bft)
02.09.2008 15:34 18,4 C 77 % 1003,5 hPa 0,0 l/m 22,8 km/h (4 Bft) SW 220 0 min 0 W/m 14,3 C 13,6 C 22,8 km/h (4 Bft)
02.09.2008 15:39 18,4 C 77 % 1003,5 hPa 0,0 l/m 24,8 km/h (4 Bft) SW 230 0 min 0 W/m 14,3 C 13,2 C 24,8 km/h (4 Bft)
02.09.2008 15:44 18,4 C 77 % 1003,5 hPa 0,0 l/m 31,0 km/h (5 Bft) W-SW 240 0 min 0 W/m 14,3 C 12,3 C 31,0 km/h (5 Bft)
02.09.2008 15:49 18,3 C 77 % 1003,5 hPa 0,0 l/m 22,6 km/h (4 Bft) SW 230 0 min 0 W/m 14,2 C 13,5 C 22,6 km/h (4 Bft)
02.09.2008 15:55 18,4 C 77 % 1003,5 hPa 0,0 l/m 21,7 km/h (4 Bft) SW 235 0 min 0 W/m 14,3 C 13,8 C 21,7 km/h (4 Bft)
02.09.2008 16:00 18,3 C 76 % 1003,5 hPa 0,0 l/m 23,6 km/h (4 Bft) SW 235 0 min 0 W/m 14,0 C 13,3 C 23,6 km/h (4 Bft)
02.09.2008 16:04 18,4 C 77 % 1003,5 hPa 0,0 l/m 27,6 km/h (5 Bft) W-SW 245 0 min 0 W/m 14,3 C 12,8 C 27,6 km/h (5 Bft)
02.09.2008 16:09 18,5 C 76 % 1003,5 hPa 0,0 l/m 20,6 km/h (4 Bft) W 260 0 min 0 W/m 14,2 C 14,1 C 20,6 km/h (4 Bft)
02.09.2008 16:14 18,6 C 75 % 1003,5 hPa 0,0 l/m 18,1 km/h (3 Bft) W-SW 250 0 min 0 W/m 14,1 C 14,8 C 18,1 km/h (3 Bft)
02.09.2008 16:20 18,6 C 75 % 1003,5 hPa 0,0 l/m 21,9 km/h (4 Bft) SW 225 0 min 0 W/m 14,1 C 14,0 C 21,9 km/h (4 Bft)
02.09.2008 16:24 18,6 C 76 % 1003,5 hPa 0,0 l/m 16,0 km/h (3 Bft) SW 225 0 min 0 W/m 14,3 C 15,3 C 16,0 km/h (3 Bft)
02.09.2008 16:29 18,4 C 76 % 1003,5 hPa 0,0 l/m 19,1 km/h (3 Bft) SW 230 0 min 0 W/m 14,1 C 14,3 C 19,1 km/h (3 Bft)
02.09.2008 16:34 18,2 C 76 % 1002,5 hPa 0,0 l/m 18,3 km/h (3 Bft) W 260 0 min 0 W/m 13,9 C 14,3 C 18,3 km/h (3 Bft)
02.09.2008 16:39 18,2 C 77 % 1002,5 hPa 0,0 l/m 19,1 km/h (3 Bft) W-SW 250 0 min 0 W/m 14,1 C 14,1 C 19,1 km/h (3 Bft)
02.09.2008 16:44 18,1 C 77 % 1002,5 hPa 0,0 l/m 22,5 km/h (4 Bft) W-SW 240 0 min 0 W/m 14,0 C 13,3 C 22,5 km/h (4 Bft)
02.09.2008 16:49 18,1 C 77 % 1002,5 hPa 0,0 l/m 20,0 km/h (4 Bft) W-SW 245 0 min 0 W/m 14,0 C 13,8 C 20,0 km/h (4 Bft)
02.09.2008 16:55 18,2 C 77 % 1002,5 hPa 0,0 l/m 22,5 km/h (4 Bft) W-SW 250 0 min 0 W/m 14,1 C 13,4 C 22,5 km/h (4 Bft)
02.09.2008 16:59 18,2 C 76 % 1002,5 hPa 0,0 l/m 20,3 km/h (4 Bft) W-SW 255 0 min 0 W/m 13,9 C 13,8 C 20,3 km/h (4 Bft)
02.09.2008 17:04 18,2 C 76 % 1002,5 hPa 0,0 l/m 24,0 km/h (4 Bft) W-SW 245 0 min 0 W/m 13,9 C 13,1 C 24,0 km/h (4 Bft)
02.09.2008 17:10 18,3 C 76 % 1002,5 hPa 0,0 l/m 22,9 km/h (4 Bft) SW 235 0 min 0 W/m 14,0 C 13,4 C 22,9 km/h (4 Bft)
02.09.2008 17:15 18,3 C 76 % 1002,5 hPa 0,0 l/m 21,8 km/h (4 Bft) W 260 0 min 0 W/m 14,0 C 13,7 C 21,8 km/h (4 Bft)
02.09.2008 17:19 18,4 C 76 % 1002,5 hPa 0,0 l/m 26,5 km/h (4 Bft) W-SW 255 0 min 0 W/m 14,1 C 13,0 C 26,5 km/h (4 Bft)
02.09.2008 17:24 18,4 C 76 % 1002,5 hPa 0,0 l/m 23,6 km/h (4 Bft) W 260 0 min 0 W/m 14,1 C 13,5 C 23,6 km/h (4 Bft)
02.09.2008 17:29 18,4 C 76 % 1002,5 hPa 0,0 l/m 25,6 km/h (4 Bft) W-SW 255 0 min 0 W/m 14,1 C 13,1 C 25,6 km/h (4 Bft)
02.09.2008 17:34 18,6 C 76 % 1002,5 hPa 0,0 l/m 23,3 km/h (4 Bft) W-SW 240 0 min 0 W/m 14,3 C 13,8 C 23,3 km/h (4 Bft)
02.09.2008 17:39 18,8 C 75 % 1002,5 hPa 0,0 l/m 27,6 km/h (5 Bft) W-SW 250 0 min 0 W/m 14,3 C 13,4 C 27,6 km/h (5 Bft)
02.09.2008 17:45 18,7 C 75 % 1002,5 hPa 0,0 l/m 18,0 km/h (3 Bft) W-SW 240 0 min 0 W/m 14,2 C 15,0 C 18,0 km/h (3 Bft)
02.09.2008 17:49 18,6 C 76 % 1002,5 hPa 0,0 l/m 18,3 km/h (3 Bft) W-SW 240 0 min 0 W/m 14,3 C 14,8 C 18,3 km/h (3 Bft)
02.09.2008 17:54 18,6 C 76 % 1002,5 hPa 0,0 l/m 15,7 km/h (3 Bft) W-SW 240 0 min 0 W/m 14,3 C 15,4 C 15,7 km/h (3 Bft)
02.09.2008 17:59 18,4 C 77 % 1002,5 hPa 0,0 l/m 19,5 km/h (3 Bft) W-SW 250 0 min 0 W/m 14,3 C 14,2 C 19,5 km/h (3 Bft)
02.09.2008 18:04 18,4 C 77 % 1002,5 hPa 0,0 l/m 29,8 km/h (5 Bft) W-SW 240 0 min 0 W/m 14,3 C 12,5 C 29,8 km/h (5 Bft)
02.09.2008 18:09 18,2 C 78 % 1001,5 hPa 0,0 l/m 29,8 km/h (5 Bft) W-SW 240 0 min 0 W/m 14,3 C 12,2 C 29,8 km/h (5 Bft)
02.09.2008 18:14 18,2 C 79 % 1001,5 hPa 0,0 l/m 21,3 km/h (4 Bft) SW 225 0 min 0 W/m 14,5 C 13,6 C 21,3 km/h (4 Bft)
02.09.2008 18:19 18,0 C 80 % 1001,5 hPa 0,0 l/m 22,0 km/h (4 Bft) SW 230 0 min 0 W/m 14,5 C 13,2 C 22,0 km/h (4 Bft)
02.09.2008 18:24 17,9 C 80 % 1001,5 hPa 0,0 l/m 15,6 km/h (3 Bft) SW 225 0 min 0 W/m 14,4 C 14,5 C 15,6 km/h (3 Bft)
02.09.2008 18:29 17,8 C 81 % 1001,5 hPa 0,0 l/m 16,2 km/h (3 Bft) SW 225 0 min 0 W/m 14,5 C 14,3 C 16,2 km/h (3 Bft)
02.09.2008 18:34 17,8 C 81 % 1001,5 hPa 0,0 l/m 16,5 km/h (3 Bft) SW 215 0 min 0 W/m 14,5 C 14,2 C 16,5 km/h (3 Bft)
02.09.2008 18:40 17,7 C 81 % 1001,5 hPa 0,0 l/m 18,6 km/h (3 Bft) S-SW 210 0 min 0 W/m 14,4 C 13,5 C 18,6 km/h (3 Bft)
02.09.2008 18:44 17,6 C 82 % 1001,5 hPa 0,0 l/m 16,9 km/h (3 Bft) SW 225 0 min 0 W/m 14,5 C 13,8 C 16,9 km/h (3 Bft)
02.09.2008 18:49 17,7 C 82 % 1001,5 hPa 0,0 l/m 16,2 km/h (3 Bft) SW 220 0 min 0 W/m 14,6 C 14,1 C 16,2 km/h (3 Bft)
02.09.2008 18:54 17,7 C 82 % 1001,5 hPa 0,0 l/m 18,1 km/h (3 Bft) SW 215 0 min 0 W/m 14,6 C 13,7 C 18,1 km/h (3 Bft)
02.09.2008 18:59 17,6 C 82 % 1001,5 hPa 0,0 l/m 16,8 km/h (3 Bft) SW 215 0 min 0 W/m 14,5 C 13,9 C 16,8 km/h (3 Bft)
02.09.2008 19:04 17,6 C 82 % 1001,5 hPa 0,0 l/m 13,8 km/h (3 Bft) S-SW 210 0 min 0 W/m 14,5 C 14,7 C 13,8 km/h (3 Bft)
02.09.2008 19:09 17,6 C 82 % 1001,5 hPa 0,0 l/m 17,3 km/h (3 Bft) S-SW 210 0 min 0 W/m 14,5 C 13,7 C 17,3 km/h (3 Bft)
02.09.2008 19:14 17,6 C 82 % 1000,5 hPa 0,0 l/m 19,0 km/h (3 Bft) S-SW 205 0 min 0 W/m 14,5 C 13,3 C 19,0 km/h (3 Bft)
02.09.2008 19:19 17,6 C 82 % 1000,5 hPa 0,0 l/m 15,0 km/h (3 Bft) S-SW 195 0 min 0 W/m 14,5 C 14,3 C 15,0 km/h (3 Bft)
02.09.2008 19:24 17,6 C 82 % 1000,5 hPa 0,0 l/m 9,4 km/h (2 Bft) S 190 0 min 0 W/m 14,5 C 16,2 C 9,4 km/h (2 Bft)
02.09.2008 19:30 17,7 C 82 % 1000,5 hPa 0,0 l/m 12,6 km/h (3 Bft) S-SW 195 0 min 0 W/m 14,6 C 15,2 C 12,6 km/h (3 Bft)
02.09.2008 19:34 17,6 C 82 % 1000,5 hPa 0,0 l/m 15,6 km/h (3 Bft) S-SW 200 0 min 0 W/m 14,5 C 14,2 C 15,6 km/h (3 Bft)
02.09.2008 19:39 17,7 C 82 % 1000,5 hPa 0,0 l/m 14,6 km/h (3 Bft) S-SW 205 0 min 0 W/m 14,6 C 14,6 C 14,6 km/h (3 Bft)
02.09.2008 19:44 17,6 C 82 % 1000,5 hPa 0,0 l/m 12,8 km/h (3 Bft) S-SW 200 0 min 0 W/m 14,5 C 15,0 C 12,8 km/h (3 Bft)
02.09.2008 19:49 17,6 C 82 % 1000,5 hPa 0,0 l/m 15,6 km/h (3 Bft) S-SW 205 0 min 0 W/m 14,5 C 14,2 C 15,6 km/h (3 Bft)
02.09.2008 19:54 17,7 C 82 % 1000,5 hPa 0,0 l/m 9,8 km/h (2 Bft) S 185 0 min 0 W/m 14,6 C 16,2 C 9,8 km/h (2 Bft)
02.09.2008 19:59 17,6 C 82 % 1000,5 hPa 0,0 l/m 11,8 km/h (2 Bft) S-SW 195 0 min 0 W/m 14,5 C 15,3 C 11,8 km/h (2 Bft)
02.09.2008 20:05 17,6 C 82 % 1000,5 hPa 0,0 l/m 12,3 km/h (2 Bft) S-SW 195 0 min 0 W/m 14,5 C 15,2 C 12,3 km/h (2 Bft)
02.09.2008 20:09 17,7 C 82 % 1000,5 hPa 0,0 l/m 12,7 km/h (3 Bft) S 190 0 min 0 W/m 14,6 C 15,2 C 12,7 km/h (3 Bft)
02.09.2008 20:14 17,7 C 82 % 999,5 hPa 0,0 l/m 13,7 km/h (3 Bft) S-SW 205 0 min 0 W/m 14,6 C 14,8 C 13,7 km/h (3 Bft)
02.09.2008 20:19 17,6 C 82 % 999,5 hPa 0,0 l/m 15,3 km/h (3 Bft) S-SW 200 0 min 0 W/m 14,5 C 14,3 C 15,3 km/h (3 Bft)
02.09.2008 20:25 17,7 C 82 % 999,5 hPa 0,0 l/m 11,5 km/h (2 Bft) S-SW 195 0 min 0 W/m 14,6 C 15,6 C 11,5 km/h (2 Bft)
02.09.2008 20:29 17,8 C 82 % 999,5 hPa 0,0 l/m 19,1 km/h (3 Bft) S-SW 200 0 min 0 W/m 14,7 C 13,6 C 19,1 km/h (3 Bft)
02.09.2008 20:34 17,7 C 82 % 999,5 hPa 0,0 l/m 17,1 km/h (3 Bft) S-SW 200 0 min 0 W/m 14,6 C 13,9 C 17,1 km/h (3 Bft)
02.09.2008 20:39 17,8 C 82 % 999,5 hPa 0,0 l/m 16,0 km/h (3 Bft) S-SW 210 0 min 0 W/m 14,7 C 14,3 C 16,0 km/h (3 Bft)
02.09.2008 20:44 17,8 C 82 % 999,5 hPa 0,0 l/m 14,9 km/h (3 Bft) S-SW 200 0 min 0 W/m 14,7 C 14,6 C 14,9 km/h (3 Bft)
02.09.2008 20:49 17,8 C 82 % 999,5 hPa 0,0 l/m 15,8 km/h (3 Bft) SW 215 0 min 0 W/m 14,7 C 14,4 C 15,8 km/h (3 Bft)
02.09.2008 20:55 17,8 C 82 % 999,5 hPa 0,0 l/m 12,6 km/h (3 Bft) S-SW 200 0 min 0 W/m 14,7 C 15,3 C 12,6 km/h (3 Bft)
02.09.2008 20:59 17,8 C 82 % 999,5 hPa 0,0 l/m 21,4 km/h (4 Bft) SW 215 0 min 0 W/m 14,7 C 13,1 C 21,4 km/h (4 Bft)
02.09.2008 21:04 17,9 C 81 % 999,5 hPa 0,0 l/m 23,4 km/h (4 Bft) SW 225 0 min 0 W/m 14,6 C 12,8 C 23,4 km/h (4 Bft)
02.09.2008 21:09 18,0 C 80 % 999,5 hPa 0,0 l/m 21,8 km/h (4 Bft) S-SW 210 0 min 0 W/m 14,5 C 13,3 C 21,8 km/h (4 Bft)
02.09.2008 21:15 18,0 C 79 % 999,5 hPa 0,0 l/m 20,9 km/h (4 Bft) SW 225 0 min 0 W/m 14,3 C 13,4 C 20,9 km/h (4 Bft)
02.09.2008 21:19 18,2 C 79 % 999,5 hPa 0,0 l/m 15,0 km/h (3 Bft) SW 230 0 min 0 W/m 14,5 C 15,1 C 15,0 km/h (3 Bft)
02.09.2008 21:24 18,3 C 78 % 999,5 hPa 0,0 l/m 14,0 km/h (3 Bft) W-SW 255 0 min 0 W/m 14,4 C 15,5 C 14,0 km/h (3 Bft)
02.09.2008 21:29 18,4 C 79 % 999,5 hPa 0,0 l/m 15,1 km/h (3 Bft) SW 230 0 min 0 W/m 14,7 C 15,3 C 15,1 km/h (3 Bft)
02.09.2008 21:34 18,4 C 79 % 999,5 hPa 0,0 l/m 7,9 km/h (2 Bft) S-SW 200 0 min 0 W/m 14,7 C 17,7 C 7,9 km/h (2 Bft)
02.09.2008 21:39 18,2 C 80 % 999,5 hPa 0,3 l/m 14,7 km/h (3 Bft) SW 220 0 min 0 W/m 14,7 C 15,2 C 14,7 km/h (3 Bft)
02.09.2008 21:44 18,1 C 80 % 999,5 hPa 0,0 l/m 7,0 km/h (2 Bft) W-SW 240 0 min 0 W/m 14,6 C 17,8 C 7,0 km/h (2 Bft)
02.09.2008 21:50 18,2 C 81 % 999,5 hPa 0,0 l/m 8,7 km/h (2 Bft) W-SW 255 0 min 0 W/m 14,9 C 17,2 C 8,7 km/h (2 Bft)
02.09.2008 21:54 18,2 C 81 % 999,5 hPa 0,0 l/m 19,3 km/h (3 Bft) W-NW 295 0 min 0 W/m 14,9 C 14,0 C 19,3 km/h (3 Bft)
02.09.2008 21:59 18,0 C 81 % 999,5 hPa 0,0 l/m 14,5 km/h (3 Bft) W 270 0 min 0 W/m 14,7 C 15,0 C 14,5 km/h (3 Bft)
02.09.2008 22:04 18,0 C 81 % 999,5 hPa 0,0 l/m 10,6 km/h (2 Bft) S-SW 205 0 min 0 W/m 14,7 C 16,2 C 10,6 km/h (2 Bft)
02.09.2008 22:09 18,0 C 82 % 999,5 hPa 0,0 l/m 7,8 km/h (2 Bft) SW 235 0 min 0 W/m 14,9 C 17,3 C 7,8 km/h (2 Bft)
02.09.2008 22:14 17,9 C 82 % 999,5 hPa 0,0 l/m 6,5 km/h (2 Bft) W-SW 250 0 min 0 W/m 14,8 C 17,9 C 6,5 km/h (2 Bft)
02.09.2008 22:19 17,9 C 82 % 999,5 hPa 0,0 l/m 10,3 km/h (2 Bft) W-SW 250 0 min 0 W/m 14,8 C 16,2 C 10,3 km/h (2 Bft)
02.09.2008 22:24 17,8 C 82 % 999,5 hPa 0,0 l/m 6,8 km/h (2 Bft) W-SW 255 0 min 0 W/m 14,7 C 17,6 C 6,8 km/h (2 Bft)
02.09.2008 22:29 17,8 C 82 % 999,5 hPa 0,0 l/m 5,2 km/h (1 Bft) SW 230 0 min 0 W/m 14,7 C 17,8 C 5,2 km/h (1 Bft)
02.09.2008 22:34 17,7 C 82 % 999,5 hPa 0,0 l/m 7,5 km/h (2 Bft) S-SW 210 0 min 0 W/m 14,6 C 17,2 C 7,5 km/h (2 Bft)
02.09.2008 22:40 17,6 C 82 % 998,5 hPa 0,0 l/m 7,2 km/h (2 Bft) S-SW 205 0 min 0 W/m 14,5 C 17,2 C 7,2 km/h (2 Bft)
02.09.2008 22:44 17,6 C 83 % 998,5 hPa 0,0 l/m 6,8 km/h (2 Bft) S-SW 200 0 min 0 W/m 14,7 C 17,4 C 6,8 km/h (2 Bft)
02.09.2008 22:49 17,6 C 83 % 998,5 hPa 0,0 l/m 8,1 km/h (2 Bft) S-SW 205 0 min 0 W/m 14,7 C 16,8 C 8,1 km/h (2 Bft)
02.09.2008 22:54 17,5 C 83 % 998,5 hPa 0,0 l/m 12,6 km/h (3 Bft) SW 220 0 min 0 W/m 14,6 C 15,0 C 12,6 km/h (3 Bft)
02.09.2008 22:59 17,4 C 82 % 998,5 hPa 0,0 l/m 22,7 km/h (4 Bft) NW 305 0 min 0 W/m 14,3 C 12,3 C 22,7 km/h (4 Bft)
02.09.2008 23:04 17,0 C 83 % 999,5 hPa 0,0 l/m 21,2 km/h (4 Bft) W-NW 300 0 min 0 W/m 14,1 C 12,1 C 21,2 km/h (4 Bft)
02.09.2008 23:09 16,7 C 85 % 999,5 hPa 0,3 l/m 30,1 km/h (5 Bft) NW 305 0 min 0 W/m 14,2 C 10,1 C 30,1 km/h (5 Bft)
02.09.2008 23:14 16,2 C 88 % 999,5 hPa 0,0 l/m 21,8 km/h (4 Bft) W-NW 295 0 min 0 W/m 14,2 C 10,9 C 21,8 km/h (4 Bft)
02.09.2008 23:19 16,0 C 91 % 999,5 hPa 0,0 l/m 19,9 km/h (4 Bft) W-NW 295 0 min 0 W/m 14,5 C 11,1 C 19,9 km/h (4 Bft)
02.09.2008 23:24 15,7 C 91 % 999,5 hPa 0,3 l/m 26,8 km/h (4 Bft) W-NW 290 0 min 0 W/m 14,2 C 9,2 C 26,8 km/h (4 Bft)
02.09.2008 23:30 15,6 C 91 % 999,5 hPa 0,0 l/m 23,5 km/h (4 Bft) W-NW 300 0 min 0 W/m 14,1 C 9,7 C 23,5 km/h (4 Bft)
02.09.2008 23:34 15,2 C 91 % 1000,5 hPa 0,3 l/m 24,3 km/h (4 Bft) W-NW 290 0 min 0 W/m 13,7 C 9,0 C 24,3 km/h (4 Bft)
02.09.2008 23:39 15,0 C 92 % 1000,5 hPa 0,3 l/m 24,4 km/h (4 Bft) W 270 0 min 0 W/m 13,7 C 8,7 C 24,4 km/h (4 Bft)
02.09.2008 23:44 15,0 C 92 % 1000,5 hPa 0,6 l/m 21,5 km/h (4 Bft) W 275 0 min 0 W/m 13,7 C 9,4 C 21,5 km/h (4 Bft)
02.09.2008 23:49 14,6 C 92 % 1000,5 hPa 0,3 l/m 23,0 km/h (4 Bft) W 265 0 min 0 W/m 13,3 C 8,5 C 23,0 km/h (4 Bft)
02.09.2008 23:54 14,5 C 93 % 1000,5 hPa 0,0 l/m 21,0 km/h (4 Bft) W 265 0 min 0 W/m 13,4 C 8,8 C 21,0 km/h (4 Bft)
02.09.2008 23:59 14,4 C 93 % 1000,5 hPa 0,3 l/m 19,1 km/h (3 Bft) W 270 0 min 0 W/m 13,3 C 9,2 C 19,1 km/h (3 Bft)
_ Min-Zeit 06:59 12:20 22:40 - 00:49 - - - - 06:59 23:49 00:49
Minimum _ 13,7 C 73 % 998,5 hPa - 0,0 km/h (0 Bft) - - - - 10,7 C 8,5 C 0,0 km/h (0 Bft)
_ Max-Zeit 12:20 23:54 00:04 23:44 15:44 - - 00:04 00:04 21:50 22:14 15:44
Maximum _ 19,3 C 93 % 1012,5 hPa 0,6 l/m 31,0 km/h
W-SW (5 Bft)
- - 0 min 0 W/m 14,9 C 17,9 C 31,0 km/h
W-SW (5 Bft)
Durchschnitt _ 16,7 C 80 % 1006,1 hPa #3,0 l/m 13,9 km/h (3 Bft) SW - #0 min. 0 W/m 13,2 C 13,9 C 13,9 km/h (3 Bft)
copyright by Holger Just